Location: Leo
(52.0556°N, 112.3605°W)
Time: 13:27:42
(UTC+00:00)

MOZHAYETS 4 - Visible Passes

Search period start: 01 December 2023 00:00
Search period end: 11 December 2023 00:00
Orbit: 656 x 672 km, 98.3° (Epoch: 01 December)

Date Brightness Start Highest point End Pass type
(mag) Time Alt. Az. Time Alt. Az. Time Alt. Az.
01 Dec 10.2 01:14:55 10° NNW 01:18:00 18° NW 01:21:05 10° W visible
02 Dec 8.4 00:07:54 10° N 00:12:26 56° WNW 00:16:56 10° SSW visible
02 Dec 10.6 01:47:16 10° NW 01:48:27 11° NW 01:49:38 10° WNW visible
03 Dec 9.4 00:39:03 10° N 00:43:08 32° WNW 00:47:12 10° SW visible
04 Dec 10.1 01:10:27 10° NNW 01:13:42 19° WNW 01:16:57 10° WSW visible
05 Dec 8.3 00:03:29 10° N 00:08:04 62° WNW 00:12:36 10° SSW visible
05 Dec 10.5 01:42:29 10° NNW 01:44:08 12° NW 01:45:47 10° WNW visible
06 Dec 9.3 00:34:35 10° N 00:38:46 35° WNW 00:42:56 10° SW visible
07 Dec 10.0 01:05:56 10° N 01:09:21 21° WNW 01:12:45 10° WSW visible
07 Dec 8.1 23:59:03 10° N 00:03:39 68° WNW 00:08:14 10° SSW visible
08 Dec 10.5 01:37:46 10° NNW 01:39:48 13° NW 01:41:48 10° WNW visible
09 Dec 9.1 00:30:06 10° N 00:34:22 38° WNW 00:38:36 10° SW visible
10 Dec 9.9 01:01:23 10° N 01:04:56 23° WNW 01:08:30 10° WSW visible
